{"data":{"norad_id":45370,"intl_designator":"2020-019L","name":"STARLINK-1281","alt_names":[],"object_type":"PAYLOAD","status":"ACTIVE","operator":null,"country":"US","launch_date":"2020-03-18","launch_site_code":"AFETR","launch_vehicle":null,"mission":null,"orbit_class":"UNKNOWN","rcs_meters":null,"size_class":null,"mass_kg":null,"dimensions":null,"purposes":["comms"],"wikipedia_slug":null,"has_3d_model":false,"image_url":null,"decayed_at":null,"tle_current":{"epoch":"2026-09-20T04:31:11.116704Z","epoch_age_seconds":41373,"freshness":"FRESH","line1":"1 45370U 20019L   26263.18832311  .00045092  00000+0  98668-3 0  9996","line2":"2 45370  53.1523 334.1049 0004894  36.4853 323.6486 15.43707705359646","mean_motion":15.43707705,"eccentricity":0.0004894,"inclination_deg":53.1523,"raan_deg":334.1049,"arg_perigee_deg":36.4853,"mean_anomaly_deg":323.6486,"bstar":0.00098668,"rev_number":35964,"period_min":93.281907924402,"perigee_km":431.84343763259,"apogee_km":438.51231023119,"semimajor_km":6813.3148739319,"source":"CELESTRAK","updated_at":"2026-09-20T09:00:38.230625Z"}}}